Location: Fazenda Monte Alegre
(4.8500°S, 38.0333°W)
Time: 16:46:42
(UTC+00:00)

ARIANE 5 R/B - Pass Details

Date: 24 September 2020
Orbit: 451 x 35397 km, 6.8° (Epoch: 24 October)

Event Time Altitude Azimuth Distance (km) Brightness Sun altitude
Rises 21:43:06 0° 271° (W) 20,833 10.9 -19.7°
Reaches altitude 10° 22:23:35 10° 278° (W) 10,012 8.5 -29.7°
Maximum altitude 22:44:42 37° 340° (NNW) 2,068 4.2 -35.0°
Enters shadow 22:45:25 36° 353° (N) 1,924 3.9 -35.1°
